| time (UTC) | temp C | wind direction | speed KPH | gust KPH | rain 1hr cm | rain 24hr cm | rain mn cm | humidity % | barometer mb |
| 20260507195444 | 11 | 134 | 6.4 | 14.5 | 0.00 | 0.00 | 0.00 | 77 | 1015.9 |
| 20260507195311 | 11 | 120 | 6.4 | 11.3 | 0.00 | 0.00 | 0.00 | 77 | 1015.8 |
| 20260507194439 | 11 | 165 | 4.8 | 11.3 | 0.00 | 0.00 | 0.00 | 77 | 1015.7 |
| 20260507194313 | 11 | 142 | 1.6 | 9.7 | 0.00 | 0.00 | 0.00 | 76 | 1015.7 |
| 20260507193439 | 11 | 116 | 4.8 | 14.5 | 0.00 | 0.00 | 0.00 | 76 | 1015.7 |
| 20260507192938 | 11 | 168 | 4.8 | 14.5 | 0.00 | 0.00 | 0.00 | 75 | 1015.6 |
| 20260507192440 | 11 | 185 | 3.2 | 14.5 | 0.00 | 0.00 | 0.00 | 75 | 1015.7 |
| 20260507191938 | 12 | 141 | 6.4 | 11.3 | 0.00 | 0.00 | 0.00 | 74 | 1015.7 |
| 20260507191637 | 12 | 131 | 6.4 | 11.3 | 0.00 | 0.00 | 0.00 | 73 | 1015.5 |
| 20260507191548 | 12 | 116 | 3.2 | 11.3 | 0.00 | 0.00 | 0.00 | 73 | 1015.6 |
| 20260507190436 | 12 | 149 | 4.8 | 9.7 | 0.00 | 0.00 | 0.00 | 72 | 1015.6 |
| 20260507185938 | 12 | 120 | 6.4 | 17.7 | 0.00 | 0.00 | 0.00 | 72 | 1015.6 |
| 20260507185435 | 12 | 145 | 6.4 | 17.7 | 0.00 | 0.00 | 0.00 | 72 | 1015.6 |
| 20260507185333 | 12 | 142 | 8.0 | 11.3 | 0.00 | 0.00 | 0.00 | 71 | 1015.6 |
| 20260507184557 | 12 | 128 | 6.4 | 11.3 | 0.00 | 0.00 | 0.00 | 70 | 1015.7 |
| 20260507183432 | 12 | 199 | 3.2 | 14.5 | 0.00 | 0.00 | 0.00 | 70 | 1015.6 |
| 20260507182934 | 12 | 151 | 6.4 | 14.5 | 0.00 | 0.00 | 0.00 | 68 | 1015.5 |
| 20260507182435 | 12 | 152 | 1.6 | 8.0 | 0.00 | 0.00 | 0.00 | 68 | 1015.5 |
| 20260507181932 | -17 | 168 | 8.0 | 8.0 | 0.00 | 0.00 | 0.00 | 1015.5 | |
| 20260507181433 | 13 | 179 | 6.4 | 6.4 | 0.00 | 0.00 | 0.00 | 67 | 1015.3 |
| 20260507181302 | 13 | 155 | 6.4 | 6.4 | 0.00 | 0.00 | 0.00 | 67 | 1015.3 |
| 20260507180432 | 13 | 144 | 6.4 | 6.4 | 0.00 | 0.00 | 0.00 | 67 | 1015.2 |
| 20260507175933 | 13 | 149 | 3.2 | 8.0 | 0.00 | 0.00 | 0.00 | 67 | 1015.2 |
| 20260507175433 | 13 | 135 | 8.0 | 9.7 | 0.00 | 0.00 | 0.00 | 67 | 1015.2 |
| 20260507174934 | -17 | 166 | 9.7 | 16.1 | 0.00 | 0.00 | 0.00 | 1015.2 | |
| 20260507174433 | -17 | 155 | 9.7 | 16.1 | 0.00 | 0.00 | 0.00 | 1015.1 | |
| 20260507174307 | 13 | 137 | 8.0 | 8.0 | 0.00 | 0.00 | 0.00 | 68 | 1015.2 |
| 20260507173741 | 13 | 154 | 6.4 | 8.0 | 0.00 | 0.00 | 0.00 | 68 | 1015.1 |
| 20260507172935 | 13 | 104 | 8.0 | 8.0 | 0.00 | 0.00 | 0.00 | 68 | 1015.1 |
| 20260507172433 | 13 | 104 | 8.0 | 8.0 | 0.00 | 0.00 | 0.00 | 68 | 1015.1 |
| 20260507171932 | -17 | 190 | 6.4 | 6.4 | 0.00 | 0.00 | 0.00 | 1015.1 | |
| 20260507171431 | 13 | 147 | 4.8 | 9.7 | 0.00 | 0.00 | 0.00 | 68 | 1015.1 |
| 20260507170920 | 13 | 86 | 4.8 | 9.7 | 0.00 | 0.00 | 0.00 | 68 | 1015.1 |
| 20260507170420 | 13 | 100 | 8.0 | 8.0 | 0.00 | 0.00 | 0.00 | 69 | 1015.1 |
| 20260507170250 | 13 | 109 | 0.0 | 3.2 | 0.00 | 0.00 | 0.00 | 69 | 1015.1 |
| 20260507165406 | 13 | 109 | 0.0 | 9.7 | 0.00 | 0.00 | 0.00 | 69 | 1015.2 |
| 20260507164906 | 13 | 109 | 4.8 | 9.7 | 0.00 | 0.00 | 0.00 | 69 | 1015.2 |
| 20260507164403 | 13 | 94 | 3.2 | 11.3 | 0.00 | 0.00 | 0.00 | 69 | 1015.2 |
| 20260507163904 | 13 | 87 | 6.4 | 11.3 | 0.00 | 0.00 | 0.00 | 69 | 1015.2 |
| 20260507163710 | 13 | 92 | 6.4 | 11.3 | 0.00 | 0.00 | 0.00 | 69 | 1015.2 |
| 20260507162905 | 13 | 89 | 3.2 | 11.3 | 0.00 | 0.00 | 0.00 | 69 | 1015.3 |
| 20260507162403 | 13 | 120 | 4.8 | 11.3 | 0.00 | 0.00 | 0.00 | 68 | 1015.3 |
| 20260507161900 | 13 | 104 | 3.2 | 9.7 | 0.00 | 0.00 | 0.00 | 69 | 1015.2 |
| 20260507161358 | 13 | 107 | 3.2 | 9.7 | 0.00 | 0.00 | 0.00 | 69 | 1015.3 |
| 20260507160854 | 13 | 79 | 3.2 | 9.7 | 0.00 | 0.00 | 0.00 | 68 | 1015.2 |
| 20260507160355 | 13 | 110 | 4.8 | 16.1 | 0.00 | 0.00 | 0.00 | 68 | 1015.2 |
| 20260507155852 | 13 | 85 | 6.4 | 16.1 | 0.00 | 0.00 | 0.00 | 68 | 1015.2 |
| 20260507155354 | 13 | 85 | 9.7 | 14.5 | 0.00 | 0.00 | 0.00 | 67 | 1015.2 |
| 20260507154852 | 13 | 125 | 8.0 | 14.5 | 0.00 | 0.00 | 0.00 | 67 | 1015.3 |
| 20260507154352 | 13 | 47 | 4.8 | 9.7 | 0.00 | 0.00 | 0.00 | 67 | 1015.3 |
| 20260507154217 | 13 | 111 | 6.4 | 11.3 | 0.00 | 0.00 | 0.00 | 64 | 1015.2 |
| 20260507153348 | 13 | 97 | 4.8 | 11.3 | 0.00 | 0.00 | 0.00 | 63 | 1015.2 |
| 20260507153224 | 13 | 85 | 3.2 | 8.0 | 0.00 | 0.00 | 0.00 | 63 | 1015.3 |
| 20260507152348 | 13 | 37 | 4.8 | 11.3 | 0.00 | 0.00 | 0.00 | 64 | 1015.3 |
| 20260507151848 | 13 | 102 | 3.2 | 11.3 | 0.00 | 0.00 | 0.00 | 63 | 1015.3 |
| 20260507151346 | 13 | 92 | 6.4 | 19.3 | 0.00 | 0.00 | 0.00 | 64 | 1015.3 |
| 20260507150845 | 13 | 114 | 4.8 | 19.3 | 0.00 | 0.00 | 0.00 | 62 | 1015.3 |
| 20260507150347 | 14 | 49 | 6.4 | 11.3 | 0.00 | 0.00 | 0.00 | 62 | 1015.2 |
| 20260507145845 | 14 | 97 | 3.2 | 9.7 | 0.00 | 0.00 | 0.00 | 62 | 1015.3 |
| 20260507145343 | 14 | 86 | 4.8 | 9.7 | 0.00 | 0.00 | 0.00 | 62 | 1015.3 |
| 20260507144846 | 14 | 179 | 4.8 | 6.4 | 0.00 | 0.00 | 0.00 | 61 | 1015.3 |
| 20260507144653 | 14 | 179 | 4.8 | 6.4 | 0.00 | 0.00 | 0.00 | 62 | 1015.4 |
| 20260507143841 | 14 | 100 | 6.4 | 9.7 | 0.00 | 0.00 | 0.00 | 60 | 1015.4 |
| 20260507143334 | 14 | 94 | 6.4 | 8.0 | 0.00 | 0.00 | 0.00 | 61 | 1015.4 |
| 20260507142835 | 14 | 117 | 3.2 | 6.4 | 0.00 | 0.00 | 0.00 | 63 | 1015.4 |
| 20260507142334 | 14 | 120 | 1.6 | 16.1 | 0.00 | 0.00 | 0.00 | 64 | 1015.5 |
| 20260507141833 | 14 | 120 | 3.2 | 16.1 | 0.00 | 0.00 | 0.00 | 62 | 1015.5 |
| 20260507141333 | 14 | 128 | 3.2 | 14.5 | 0.00 | 0.00 | 0.00 | 61 | 1015.5 |
| 20260507141209 | 14 | 106 | 6.4 | 14.5 | 0.00 | 0.00 | 0.00 | 61 | 1015.6 |
| 20260507140333 | 14 | 134 | 3.2 | 11.3 | 0.00 | 0.00 | 0.00 | 61 | 1015.6 |
| 20260507140215 | 15 | 109 | 4.8 | 11.3 | 0.00 | 0.00 | 0.00 | 59 | 1015.6 |
| 20260507135333 | 15 | 203 | 4.8 | 8.0 | 0.00 | 0.00 | 0.00 | 59 | 1015.6 |
| 20260507134834 | 15 | 121 | 4.8 | 8.0 | 0.00 | 0.00 | 0.00 | 58 | 1015.6 |
| 20260507134329 | 15 | 203 | 3.2 | 6.4 | 0.00 | 0.00 | 0.00 | 58 | 1015.7 |
| 20260507133829 | 15 | 178 | 0.0 | 6.4 | 0.00 | 0.00 | 0.00 | 58 | 1015.6 |
| 20260507133328 | 16 | 207 | 6.4 | 11.3 | 0.00 | 0.00 | 0.00 | 54 | 1015.6 |
| 20260507133159 | 16 | 179 | 8.0 | 11.3 | 0.00 | 0.00 | 0.00 | 54 | 1015.7 |
| 20260507132326 | 16 | 188 | 6.4 | 6.4 | 0.00 | 0.00 | 0.00 | 59 | 1015.7 |
| 20260507131825 | 16 | 202 | 4.8 | 6.4 | 0.00 | 0.00 | 0.00 | 54 | 1015.7 |
| 20260507131637 | 16 | 202 | 4.8 | 9.7 | 0.00 | 0.00 | 0.00 | 54 | 1015.8 |
| 20260507130831 | 17 | 114 | 6.4 | 9.7 | 0.00 | 0.00 | 0.00 | 54 | 1015.7 |
| 20260507130326 | 17 | 172 | 4.8 | 6.4 | 0.00 | 0.00 | 0.00 | 62 | 1015.7 |
| 20260507125821 | 17 | 68 | 6.4 | 8.0 | 0.00 | 0.00 | 0.00 | 62 | 1015.7 |
| 20260507125321 | 16 | 158 | 3.2 | 11.3 | 0.00 | 0.00 | 0.00 | 65 | 1015.8 |
| 20260507124812 | 16 | 118 | 8.0 | 14.5 | 0.00 | 0.00 | 0.00 | 65 | 1015.9 |
| 20260507124311 | 16 | 79 | 12.9 | 14.5 | 0.00 | 0.00 | 0.00 | 65 | 1015.9 |
| 20260507123810 | 16 | 80 | 9.7 | 14.5 | 0.00 | 0.00 | 0.00 | 65 | 1015.9 |
| 20260507123308 | 16 | 92 | 6.4 | 16.1 | 0.00 | 0.00 | 0.00 | 65 | 1015.9 |
| 20260507122804 | 16 | 96 | 9.7 | 16.1 | 0.00 | 0.00 | 0.00 | 65 | 1015.9 |
| 20260507122413 | 16 | 169 | 3.2 | 9.7 | 0.00 | 0.00 | 0.00 | 65 | 1015.9 |
| 20260507122352 | 16 | 61 | 6.4 | 9.7 | 0.00 | 0.00 | 0.00 | 65 | 1015.8 |
| 20260507121302 | 15 | 117 | 9.7 | 9.7 | 0.00 | 0.00 | 0.00 | 68 | 1016.1 |
| 20260507120802 | 15 | 130 | 8.0 | 8.0 | 0.00 | 0.00 | 0.00 | 68 | 1016.0 |
| 20260507120259 | -17 | 97 | 4.8 | 4.8 | 0.00 | 0.00 | 0.00 | 1016.1 | |
| 20260507115759 | 13 | 109 | 3.2 | 6.4 | 0.00 | 0.00 | 0.00 | 68 | 1016.1 |
| 20260507115248 | 13 | 120 | 6.4 | 8.0 | 0.00 | 0.00 | 0.00 | 68 | 1016.0 |
| 20260507115106 | -17 | 120 | 8.0 | 8.0 | 0.00 | 0.00 | 0.00 | 1016.1 | |
| 20260507114247 | -17 | 176 | 3.2 | 6.4 | 0.00 | 0.00 | 0.00 | 1016.2 | |
| 20260507114101 | 13 | 131 | 6.4 | 6.4 | 0.00 | 0.00 | 0.00 | 69 | 1016.3 |
| 20260507113244 | 13 | 147 | 3.2 | 3.2 | 0.00 | 0.00 | 0.00 | 69 | 1016.1 |
| 20260507112745 | 12 | 145 | 8.0 | 8.0 | 0.00 | 0.00 | 0.00 | 70 | 1016.2 |
| 20260507112244 | 12 | 145 | 8.0 | 8.0 | 0.00 | 0.00 | 0.00 | 74 | 1016.2 |
| 20260507111744 | 12 | 144 | 0.0 | 4.8 | 0.00 | 0.00 | 0.00 | 74 | 1016.3 |
| 20260507111246 | 12 | 142 | 4.8 | 4.8 | 0.00 | 0.00 | 0.00 | 74 | 1016.3 |
| 20260507110748 | -17 | 145 | 1.6 | 3.2 | 0.00 | 0.00 | 0.00 | 1016.3 | |
| 20260507110257 | -17 | 141 | 3.2 | 4.8 | 0.00 | 0.00 | 0.00 | 1016.4 | |
| 20260507105746 | -17 | 137 | 4.8 | 4.8 | 0.00 | 0.00 | 0.00 | 1016.4 | |
| 20260507105234 | -17 | 127 | 3.2 | 4.8 | 0.00 | 0.00 | 0.00 | 1016.3 | |
| 20260507105046 | 11 | 142 | 3.2 | 3.2 | 0.00 | 0.00 | 0.00 | 75 | 1016.4 |
| 20260507104232 | 11 | 142 | 1.6 | 4.8 | 0.00 | 0.00 | 0.00 | 75 | 1016.4 |
| 20260507103731 | 11 | 135 | 1.6 | 4.8 | 0.00 | 0.00 | 0.00 | 75 | 1016.4 |
| 20260507103233 | 11 | 135 | 1.6 | 4.8 | 0.00 | 0.00 | 0.00 | 77 | 1016.4 |
| 20260507102730 | 11 | 127 | 0.0 | 6.4 | 0.00 | 0.00 | 0.00 | 77 | 1016.4 |
| 20260507102229 | 11 | 127 | 3.2 | 6.4 | 0.00 | 0.00 | 0.00 | 77 | 1016.4 |
| 20260507101729 | 11 | 125 | 3.2 | 6.4 | 0.00 | 0.00 | 0.00 | 76 | 1016.5 |
| 20260507101229 | 11 | 125 | 0.0 | 6.4 | 0.00 | 0.00 | 0.00 | 76 | 1016.5 |
| 20260507100727 | 11 | 123 | 1.6 | 4.8 | 0.00 | 0.00 | 0.00 | 77 | 1016.5 |
| 20260507100225 | 11 | 123 | 1.6 | 3.2 | 0.00 | 0.00 | 0.00 | 78 | 1016.4 |
| 20260507095727 | 11 | 123 | 0.0 | 1.6 | 0.00 | 0.00 | 0.00 | 78 | 1016.4 |
| 20260507095226 | 11 | 123 | 0.0 | 3.2 | 0.00 | 0.00 | 0.00 | 78 | 1016.5 |
| 20260507094723 | 10 | 123 | 0.0 | 4.8 | 0.00 | 0.00 | 0.00 | 77 | 1016.5 |
| 20260507094225 | 10 | 120 | 1.6 | 4.8 | 0.00 | 0.00 | 0.00 | 78 | 1016.5 |
| 20260507093724 | 10 | 118 | 1.6 | 4.8 | 0.00 | 0.00 | 0.00 | 78 | 1016.5 |
| 20260507093226 | 10 | 113 | 0.0 | 0.0 | 0.00 | 0.00 | 0.00 | 79 | 1016.5 |
| 20260507092724 | 10 | 113 | 0.0 | 0.0 | 0.00 | 0.00 | 0.00 | 79 | 1016.3 |
| 20260507092225 | 10 | 113 | 0.0 | 3.2 | 0.00 | 0.00 | 0.00 | 79 | 1016.3 |
| 20260507091725 | 10 | 113 | 0.0 | 3.2 | 0.00 | 0.00 | 0.00 | 79 | 1016.3 |
| 20260507091225 | 10 | 113 | 0.0 | 3.2 | 0.00 | 0.00 | 0.00 | 79 | 1016.4 |
| 20260507090726 | 10 | 113 | 0.0 | 3.2 | 0.00 | 0.00 | 0.00 | 79 | 1016.4 |
| 20260507090225 | 10 | 113 | 1.6 | 3.2 | 0.00 | 0.00 | 0.00 | 79 | 1016.3 |
| 20260507085723 | 10 | 113 | 0.0 | 1.6 | 0.00 | 0.00 | 0.00 | 81 | 1016.3 |
| 20260507085221 | 10 | 113 | 0.0 | 3.2 | 0.00 | 0.00 | 0.00 | 81 | 1016.4 |
| 20260507084720 | 10 | 113 | 0.0 | 4.8 | 0.00 | 0.00 | 0.00 | 81 | 1016.4 |
| 20260507084221 | 10 | 113 | 1.6 | 9.7 | 0.00 | 0.00 | 0.00 | 81 | 1016.3 |
| 20260507084037 | 10 | 111 | 3.2 | 9.7 | 0.00 | 0.00 | 0.00 | 82 | 1016.3 |
| 20260507083211 | 10 | 111 | 4.8 | 8.0 | 0.00 | 0.00 | 0.00 | 84 | 1016.4 |
| 20260507082710 | 10 | 111 | 3.2 | 8.0 | 0.00 | 0.00 | 0.00 | 84 | 1016.3 |
| 20260507082204 | 10 | 111 | 0.0 | 6.4 | 0.00 | 0.00 | 0.00 | 84 | 1016.3 |
| 20260507081704 | 10 | 111 | 3.2 | 8.0 | 0.00 | 0.00 | 0.00 | 84 | 1016.4 |
| 20260507081204 | 10 | 110 | 6.4 | 8.0 | 0.00 | 0.00 | 0.00 | 85 | 1016.4 |
| 20260507080948 | 9 | 113 | 3.2 | 6.4 | 0.00 | 0.00 | 0.00 | 88 | 1016.3 |
| 20260507080206 | 9 | 158 | 6.4 | 6.4 | 0.00 | 0.00 | 0.00 | 88 | 1016.3 |
| 20260507075705 | 9 | 93 | 3.2 | 6.4 | 0.00 | 0.00 | 0.00 | 89 | 1016.3 |
| 20260507075204 | 9 | 66 | 6.4 | 6.4 | 0.00 | 0.00 | 0.00 | 89 | 1016.3 |
| 20260507074704 | 8 | 104 | 3.2 | 6.4 | 0.00 | 0.00 | 0.00 | 89 | 1016.2 |
| 20260507074206 | 8 | 104 | 1.6 | 6.4 | 0.00 | 0.00 | 0.00 | 89 | 1016.3 |
| 20260507073702 | 8 | 114 | 0.0 | 4.8 | 0.00 | 0.00 | 0.00 | 88 | 1016.2 |
| 20260507073201 | 8 | 158 | 1.6 | 4.8 | 0.00 | 0.00 | 0.00 | 88 | 1016.3 |
| 20260507072702 | 8 | 159 | 1.6 | 4.8 | 0.00 | 0.00 | 0.00 | 89 | 1016.3 |
| 20260507072200 | 8 | 152 | 1.6 | 3.2 | 0.00 | 0.00 | 0.00 | 89 | 1016.3 |
| 20260507071946 | 8 | 152 | 0.0 | 4.8 | 0.00 | 0.00 | 0.00 | 89 | 1016.3 |
| 20260507071325 | 8 | 110 | 1.6 | 4.8 | 0.00 | 0.00 | 0.00 | 90 | 1016.2 |
| 20260507071259 | 8 | 151 | 1.6 | 4.8 | 0.00 | 0.00 | 0.00 | 89 | 1016.2 |
| 20260507070200 | 8 | 110 | 0.0 | 4.8 | 0.00 | 0.00 | 0.00 | 90 | 1016.2 |
| 20260507065655 | 8 | 110 | 3.2 | 6.4 | 0.00 | 0.00 | 0.00 | 90 | 1016.1 |
| 20260507065443 | 8 | 110 | 1.6 | 6.4 | 0.00 | 0.00 | 0.00 | 90 | 1016.1 |
| 20260507064658 | 7 | 110 | 1.6 | 6.4 | 0.00 | 0.00 | 0.00 | 90 | 1016.1 |
| 20260507064155 | 7 | 75 | 3.2 | 6.4 | 0.00 | 0.00 | 0.00 | 90 | 1016.1 |
| 20260507063652 | 7 | 68 | 1.6 | 4.8 | 0.00 | 0.00 | 0.00 | 90 | 1016.1 |
| 20260507063151 | 7 | 68 | 0.0 | 6.4 | 0.00 | 0.00 | 0.00 | 90 | 1016.0 |
| 20260507062650 | 7 | 68 | 3.2 | 6.4 | 0.00 | 0.00 | 0.00 | 91 | 1016.0 |
| 20260507062151 | 7 | 66 | 0.0 | 3.2 | 0.00 | 0.00 | 0.00 | 91 | 1016.0 |
| 20260507061651 | 7 | 66 | 0.0 | 0.0 | 0.00 | 0.00 | 0.00 | 91 | 1016.0 |
| 20260507061437 | 7 | 66 | 0.0 | 0.0 | 0.00 | 0.00 | 0.00 | 91 | 1016.0 |
| 20260507060654 | 7 | 66 | 0.0 | 3.2 | 0.00 | 0.00 | 0.00 | 91 | 1015.9 |
| 20260507060434 | 7 | 42 | 0.0 | 3.2 | 0.00 | 0.00 | 0.00 | 91 | 1015.9 |
| 20260507055652 | 7 | 42 | 0.0 | 3.2 | 0.00 | 0.00 | 0.00 | 90 | 1015.9 |
| 20260507055156 | 7 | 42 | 0.0 | 3.2 | 0.00 | 0.00 | 0.00 | 91 | 1015.8 |
| 20260507054652 | 7 | 42 | 0.0 | 0.0 | 0.00 | 0.00 | 0.00 | 90 | 1015.9 |
| 20260507054154 | 7 | 42 | 0.0 | 0.0 | 0.00 | 0.00 | 0.00 | 90 | 1015.8 |
| 20260507053651 | 7 | 42 | 0.0 | 0.0 | 0.00 | 0.00 | 0.00 | 90 | 1015.8 |
| 20260507053148 | 7 | 42 | 0.0 | 0.0 | 0.00 | 0.00 | 0.00 | 90 | 1015.7 |
| 20260507052646 | 6 | 42 | 0.0 | 0.0 | 0.00 | 0.00 | 0.00 | 89 | 1015.8 |
| 20260507052146 | 6 | 42 | 0.0 | 0.0 | 0.00 | 0.00 | 0.00 | 89 | 1015.7 |
| 20260507051646 | 6 | 42 | 0.0 | 0.0 | 0.00 | 0.00 | 0.00 | 89 | 1015.7 |
| 20260507051146 | 6 | 42 | 0.0 | 0.0 | 0.00 | 0.00 | 0.00 | 89 | 1015.6 |
| 20260507050651 | 6 | 42 | 0.0 | 0.0 | 0.00 | 0.00 | 0.00 | 89 | 1015.6 |
| 20260507050148 | 6 | 42 | 0.0 | 0.0 | 0.00 | 0.00 | 0.00 | 89 | 1015.6 |
| 20260507045647 | 6 | 42 | 0.0 | 0.0 | 0.00 | 0.00 | 0.00 | 89 | 1015.5 |
| 20260507045436 | 6 | 42 | 0.0 | 0.0 | 0.00 | 0.00 | 0.00 | 89 | 1015.5 |
| 20260507044646 | 6 | 42 | 0.0 | 0.0 | 0.00 | 0.00 | 0.00 | 89 | 1015.5 |
| 20260507044144 | 6 | 42 | 0.0 | 0.0 | 0.00 | 0.00 | 0.00 | 89 | 1015.5 |
| 20260507043645 | 6 | 42 | 0.0 | 0.0 | 0.00 | 0.00 | 0.00 | 89 | 1015.5 |
| 20260507043147 | 6 | 42 | 0.0 | 0.0 | 0.00 | 0.00 | 0.00 | 89 | 1015.4 |
| 20260507042643 | 6 | 42 | 0.0 | 0.0 | 0.00 | 0.00 | 0.00 | 89 | 1015.4 |
| 20260507042146 | 6 | 42 | 0.0 | 0.0 | 0.00 | 0.00 | 0.00 | 89 | 1015.4 |
| 20260507041648 | 6 | 42 | 0.0 | 0.0 | 0.00 | 0.00 | 0.00 | 89 | 1015.5 |
| 20260507041147 | 6 | 42 | 0.0 | 0.0 | 0.00 | 0.00 | 0.00 | 89 | 1015.4 |
| 20260507040645 | 6 | 42 | 0.0 | 0.0 | 0.00 | 0.00 | 0.00 | 89 | 1015.4 |
| 20260507040143 | 6 | 42 | 0.0 | 0.0 | 0.00 | 0.00 | 0.00 | 89 | 1015.5 |
| 20260507035644 | 6 | 42 | 0.0 | 0.0 | 0.00 | 0.00 | 0.00 | 89 | 1015.5 |
| 20260507035143 | 6 | 42 | 0.0 | 0.0 | 0.00 | 0.00 | 0.00 | 89 | 1015.4 |
| 20260507034646 | 6 | 42 | 0.0 | 0.0 | 0.00 | 0.00 | 0.00 | 89 | 1015.4 |
| 20260507034143 | 6 | 42 | 0.0 | 0.0 | 0.00 | 0.00 | 0.00 | 89 | 1015.5 |
| 20260507033940 | 6 | 42 | 0.0 | 0.0 | 0.00 | 0.00 | 0.00 | 89 | 1015.4 |
| 20260507033144 | 6 | 42 | 0.0 | 0.0 | 0.00 | 0.00 | 0.00 | 89 | 1015.3 |
| 20260507032643 | 7 | 42 | 0.0 | 0.0 | 0.00 | 0.00 | 0.00 | 89 | 1015.3 |
| 20260507032436 | 7 | 42 | 0.0 | 0.0 | 0.00 | 0.00 | 0.00 | 89 | 1015.3 |
| 20260507031929 | 7 | 42 | 0.0 | 0.0 | 0.00 | 0.00 | 0.00 | 89 | 1015.4 |
| 20260507031144 | 7 | 42 | 0.0 | 0.0 | 0.00 | 0.00 | 0.00 | 89 | 1015.4 |
| 20260507030642 | 7 | 42 | 0.0 | 0.0 | 0.00 | 0.00 | 0.00 | 90 | 1015.4 |
| 20260507030141 | 7 | 42 | 0.0 | 0.0 | 0.00 | 0.00 | 0.00 | 89 | 1015.4 |
| 20260507025937 | 7 | 42 | 0.0 | 0.0 | 0.00 | 0.00 | 0.00 | 89 | 1015.4 |
| 20260507025142 | 7 | 42 | 0.0 | 0.0 | 0.00 | 0.00 | 0.00 | 90 | 1015.2 |
| 20260507025115 | 7 | 42 | 0.0 | 0.0 | 0.00 | 0.00 | 0.00 | 90 | 1015.3 |
| 20260507025109 | 7 | 42 | 0.0 | 0.0 | 0.00 | 0.00 | 0.00 | 90 | 1015.3 |
| 20260507023640 | 7 | 42 | 0.0 | 0.0 | 0.00 | 0.00 | 0.00 | 90 | 1015.3 |
| 20260507023141 | 7 | 42 | 0.0 | 0.0 | 0.00 | 0.00 | 0.00 | 90 | 1015.4 |
| 20260507022641 | 7 | 42 | 0.0 | 0.0 | 0.00 | 0.00 | 0.00 | 90 | 1015.4 |
| 20260507022141 | 7 | 42 | 0.0 | 0.0 | 0.00 | 0.00 | 0.00 | 90 | 1015.4 |
| 20260507021643 | 7 | 42 | 0.0 | 1.6 | 0.00 | 0.00 | 0.00 | 90 | 1015.4 |
| 20260507021142 | 7 | 42 | 0.0 | 1.6 | 0.00 | 0.00 | 0.00 | 89 | 1015.4 |
| 20260507020641 | 7 | 42 | 0.0 | 0.0 | 0.00 | 0.00 | 0.00 | 89 | 1015.3 |
| 20260507020140 | 7 | 42 | 0.0 | 0.0 | 0.00 | 0.00 | 0.00 | 89 | 1015.3 |
| 20260507015641 | 7 | 42 | 0.0 | 0.0 | 0.00 | 0.00 | 0.00 | 89 | 1015.2 |
| 20260507015139 | 6 | 42 | 0.0 | 3.2 | 0.00 | 0.00 | 0.00 | 89 | 1015.3 |
| 20260507014930 | 6 | 42 | 0.0 | 3.2 | 0.00 | 0.00 | 0.00 | 88 | 1015.3 |
| 20260507014138 | 6 | 42 | 0.0 | 1.6 | 0.00 | 0.00 | 0.00 | 88 | 1015.2 |
| 20260507013640 | 6 | 42 | 0.0 | 0.0 | 0.00 | 0.00 | 0.00 | 88 | 1015.2 |
| 20260507013141 | 6 | 42 | 0.0 | 0.0 | 0.00 | 0.00 | 0.00 | 88 | 1015.2 |
| 20260507012641 | 6 | 42 | 0.0 | 4.8 | 0.00 | 0.00 | 0.00 | 88 | 1015.2 |
| 20260507012140 | 7 | 42 | 0.0 | 4.8 | 0.00 | 0.00 | 0.00 | 88 | 1015.2 |
| 20260507011638 | 7 | 42 | 1.6 | 4.8 | 0.00 | 0.00 | 0.00 | 88 | 1015.2 |
| 20260507011138 | 7 | 44 | 0.0 | 4.8 | 0.00 | 0.00 | 0.00 | 88 | 1015.1 |
| 20260507010640 | 7 | 44 | 0.0 | 4.8 | 0.00 | 0.00 | 0.00 | 88 | 1015.2 |
| 20260507010139 | 7 | 42 | 1.6 | 3.2 | 0.00 | 0.00 | 0.00 | 88 | 1015.1 |
| 20260507005639 | 7 | 42 | 1.6 | 4.8 | 0.00 | 0.00 | 0.00 | 88 | 1015.1 |
| 20260507005434 | 7 | 42 | 1.6 | 6.4 | 0.00 | 0.00 | 0.00 | 88 | 1015.2 |
| 20260507004637 | 7 | 42 | 3.2 | 6.4 | 0.00 | 0.00 | 0.00 | 88 | 1015.1 |
| 20260507004137 | 7 | 30 | 3.2 | 4.8 | 0.00 | 0.00 | 0.00 | 87 | 1015.1 |
| 20260507003638 | 7 | 28 | 1.6 | 4.8 | 0.00 | 0.00 | 0.00 | 87 | 1015.2 |
| 20260507003138 | 7 | 28 | 0.0 | 0.0 | 0.00 | 0.00 | 0.00 | 87 | 1015.2 |
| 20260507002638 | 7 | 28 | 0.0 | 3.2 | 0.00 | 0.00 | 0.00 | 87 | 1015.3 |
| 20260507002138 | 7 | 28 | 0.0 | 3.2 | 0.00 | 0.00 | 0.00 | 87 | 1015.3 |
| 20260507001943 | 7 | 28 | 0.0 | 3.2 | 0.00 | 0.00 | 0.00 | 88 | 1015.3 |
| 20260507001145 | 7 | 28 | 1.6 | 4.8 | 0.00 | 0.00 | 0.00 | 88 | 1015.3 |
| 20260507000637 | 7 | 30 | 0.0 | 4.8 | 0.00 | 0.00 | 0.00 | 88 | 1015.3 |
| 20260507000136 | 7 | 30 | 1.6 | 4.8 | 0.00 | 0.00 | 0.00 | 88 | 1015.3 |
| 20260506235636 | 7 | 30 | 0.0 | 4.8 | 0.00 | 0.00 | 0.00 | 88 | 1015.2 |
| 20260506235137 | 7 | 30 | 0.0 | 4.8 | 0.00 | 0.00 | 0.00 | 88 | 1015.3 |
| 20260506234930 | 7 | 28 | 1.6 | 8.0 | 0.00 | 0.00 | 0.00 | 87 | 1015.3 |
| 20260506234136 | 7 | 28 | 1.6 | 8.0 | 0.00 | 0.00 | 0.00 | 87 | 1015.2 |
| 20260506233635 | 7 | 37 | 1.6 | 8.0 | 0.00 | 0.00 | 0.00 | 88 | 1015.3 |
| 20260506233136 | 7 | 35 | 1.6 | 8.0 | 0.00 | 0.00 | 0.00 | 87 | 1015.3 |
| 20260506232636 | 7 | 6 | 0.0 | 1.6 | 0.00 | 0.00 | 0.00 | 87 | 1015.3 |
| 20260506232135 | 7 | 6 | 0.0 | 3.2 | 0.00 | 0.00 | 0.00 | 87 | 1015.2 |
| 20260506231722 | 7 | 6 | 1.6 | 4.8 | 0.00 | 0.00 | 0.00 | 87 | 1015.3 |
| 20260506230935 | 7 | 7 | 1.6 | 6.4 | 0.00 | 0.00 | 0.00 | 87 | 1015.2 |
| 20260506230133 | 7 | 38 | 1.6 | 4.8 | 0.00 | 0.00 | 0.00 | 87 | 1015.1 |
| 20260506225631 | 8 | 10 | 1.6 | 8.0 | 0.00 | 0.00 | 0.00 | 87 | 1015.1 |
| 20260506225132 | 8 | 10 | 3.2 | 8.0 | 0.00 | 0.00 | 0.00 | 86 | 1015.2 |
| 20260506224631 | 8 | 0 | 3.2 | 8.0 | 0.00 | 0.00 | 0.00 | 87 | 1015.1 |
| 20260506224131 | 8 | 52 | 1.6 | 4.8 | 0.00 | 0.00 | 0.00 | 87 | 1015.2 |
| 20260506223631 | 8 | 52 | 1.6 | 8.0 | 0.00 | 0.00 | 0.00 | 87 | 1015.2 |
| 20260506223131 | 8 | 55 | 1.6 | 8.0 | 0.00 | 0.00 | 0.00 | 87 | 1015.1 |
| 20260506222631 | 8 | 49 | 3.2 | 6.4 | 0.00 | 0.00 | 0.00 | 87 | 1015.2 |
| 20260506222132 | 8 | 51 | 3.2 | 6.4 | 0.00 | 0.00 | 0.00 | 87 | 1015.1 |
| 20260506221631 | 8 | 49 | 3.2 | 8.0 | 0.00 | 0.00 | 0.00 | 87 | 1015.2 |
| 20260506221131 | 8 | 61 | 1.6 | 8.0 | 0.00 | 0.00 | 0.00 | 86 | 1015.0 |
| 20260506220631 | 8 | 32 | 3.2 | 8.0 | 0.00 | 0.00 | 0.00 | 86 | 1015.1 |
| 20260506220131 | 8 | 27 | 3.2 | 8.0 | 0.00 | 0.00 | 0.00 | 86 | 1015.1 |
| 20260506215633 | 8 | 31 | 0.0 | 6.4 | 0.00 | 0.00 | 0.00 | 86 | 1015.0 |
| 20260506215130 | 8 | 39 | 1.6 | 6.4 | 0.00 | 0.00 | 0.00 | 86 | 1015.1 |
| 20260506214632 | 8 | 34 | 3.2 | 8.0 | 0.00 | 0.00 | 0.00 | 86 | 1015.0 |
| 20260506214134 | 8 | 18 | 3.2 | 9.7 | 0.00 | 0.00 | 0.00 | 86 | 1015.1 |
| 20260506213630 | 8 | 37 | 3.2 | 9.7 | 0.00 | 0.00 | 0.00 | 86 | 1015.0 |
| 20260506213141 | 8 | 38 | 4.8 | 8.0 | 0.00 | 0.00 | 0.00 | 86 | 1015.0 |
| 20260506212630 | 8 | 59 | 1.6 | 8.0 | 0.00 | 0.00 | 0.00 | 86 | 1015.1 |
| 20260506212133 | 8 | 61 | 1.6 | 8.0 | 0.00 | 0.00 | 0.00 | 86 | 1015.1 |
| 20260506211631 | 8 | 0 | 3.2 | 6.4 | 0.00 | 0.00 | 0.00 | 85 | 1015.1 |
| 20260506211131 | 8 | 51 | 1.6 | 9.7 | 0.00 | 0.00 | 0.00 | 85 | 1015.0 |
| 20260506210631 | 8 | 51 | 3.2 | 11.3 | 0.00 | 0.00 | 0.00 | 85 | 1015.1 |
| 20260506210130 | 8 | 51 | 4.8 | 16.1 | 0.00 | 0.00 | 0.00 | 85 | 1015.0 |
| 20260506205926 | 8 | 3 | 3.2 | 16.1 | 0.00 | 0.00 | 0.00 | 85 | 1014.9 |
| 20260506205131 | 8 | 49 | 3.2 | 9.7 | 0.00 | 0.00 | 0.00 | 85 | 1014.9 |
| 20260506204631 | 8 | 54 | 3.2 | 9.7 | 0.00 | 0.00 | 0.00 | 84 | 1014.9 |
| 20260506204427 | 8 | 51 | 4.8 | 9.7 | 0.00 | 0.00 | 0.00 | 84 | 1014.8 |
| 20260506203925 | 8 | 71 | 1.6 | 9.7 | 0.00 | 0.00 | 0.00 | 84 | 1014.9 |
| 20260506203130 | 8 | 0 | 3.2 | 11.3 | 0.00 | 0.00 | 0.00 | 84 | 1014.8 |
| 20260506202630 | 8 | 52 | 3.2 | 14.5 | 0.00 | 0.00 | 0.00 | 83 | 1014.8 |
| 20260506202130 | 8 | 56 | 8.0 | 16.1 | 0.00 | 0.00 | 0.00 | 83 | 1014.6 |
| 20260506201629 | 8 | 38 | 4.8 | 16.1 | 0.00 | 0.00 | 0.00 | 83 | 1014.6 |
| 20260506201428 | 8 | 52 | 4.8 | 11.3 | 0.00 | 0.00 | 0.00 | 82 | 1014.5 |
| 20260506200630 | 8 | 44 | 4.8 | 9.7 | 0.00 | 0.00 | 0.00 | 82 | 1014.4 |
| 20260506200131 | 8 | 48 | 4.8 | 14.5 | 0.00 | 0.00 | 0.00 | 81 | 1014.5 |